This is the latest recevied weather packets stored in our database for station/object G7GQA-4. If no packets are shown the sender has not sent any weather packets the latest 10 day(s).
| Time | Temp. | Humidity | Pressure | Rain* | Wind** | Luminosity | Snow |
|---|---|---|---|---|---|---|---|
| 1778076926 | 13.89° C | 46% | - | 0 mm | - | 726 W/m² | - |
| 1778076326 | 13.33° C | 49% | - | 0 mm | - | 356 W/m² | - |
| 1778075726 | 13.89° C | 47% | - | 0 mm | - | 475 W/m² | - |
| 1778075126 | 13.89° C | 48% | - | 0 mm | - | 513 W/m² | - |
| 1778074526 | 13.33° C | 49% | - | 0 mm | - | 376 W/m² | - |
| 1778073926 | 13.33° C | 50% | - | 0 mm | - | 688 W/m² | - |
| 1778073326 | 13.33° C | 51% | - | 0 mm | - | 625 W/m² | - |
| 1778072726 | 12.78° C | 53% | - | 0 mm | - | 591 W/m² | - |
| 1778072126 | 13.33° C | 53% | - | 0 mm | - | 515 W/m² | - |
| 1778071526 | 12.78° C | 54% | - | 0 mm | - | 489 W/m² | - |
| 1778070926 | 12.22° C | 55% | - | 0 mm | - | 589 W/m² | - |
| 1778070326 | 12.78° C | 55% | - | 0 mm | - | 608 W/m² | - |
| 1778069725 | 12.22° C | 55% | - | 0 mm | - | 541 W/m² | - |
| 1778069125 | 12.22° C | 56% | - | 0 mm | - | 485 W/m² | - |
| 1778068525 | 11.67° C | 57% | - | 0 mm | - | 551 W/m² | - |
| 1778067925 | 11.11° C | 59% | - | 0 mm | - | 480 W/m² | - |
| 1778067325 | 11.67° C | 61% | - | 0 mm | - | 445 W/m² | - |
| 1778066725 | 11.11° C | 61% | - | 0 mm | - | 450 W/m² | - |
| 1778066126 | 11.11° C | 61% | - | 0 mm | - | 410 W/m² | - |
| 1778065526 | 10.56° C | 64% | - | 0 mm | - | 403 W/m² | - |
| 1778064925 | 10.56° C | 63% | - | 0 mm | - | 407 W/m² | - |
| 1778064325 | 10° C | 64% | - | 0 mm | - | 424 W/m² | - |
| 1778063725 | 10° C | 65% | - | 0 mm | - | 388 W/m² | - |
| 1778063125 | 10° C | 66% | - | 0 mm | - | 308 W/m² | - |
| 1778062525 | 9.44° C | 66% | - | 0 mm | - | 301 W/m² | - |
* Rain latest hour (hover to see other rain measurements)
** Current wind speed in m/s (hover to see current wind gust speed)